Time,TemperatureF,DewpointF,PressureIn,WindDirection,WindDirectionDegrees,WindSpeedMPH,WindSpeedGustMPH,Humidity,HourlyPrecipIn,Conditions,Clouds,dailyrainin,SoftwareType,DateUTC
2013-04-06 00:00:00,36.5,25.1,30.19,North,1,5.0,6.0,63,0.00,,,0.00,Wunderground v.1.15,2013-04-06 04:00:00,
2013-04-06 00:03:00,36.5,25.1,30.19,North,9,5.0,6.0,63,0.00,,,0.00,Wunderground v.1.15,2013-04-06 04:03:00,
2013-04-06 00:08:00,36.4,25.0,30.19,North,11,5.0,6.0,63,0.00,,,0.00,Wunderground v.1.15,2013-04-06 04:08:00,
2013-04-06 00:14:00,36.3,25.3,30.19,NNE,12,6.0,7.0,64,0.00,,,0.00,Wunderground v.1.15,2013-04-06 04:14:00,
2013-04-06 00:18:00,36.2,24.8,30.18,NNE,18,5.0,7.0,63,0.00,,,0.00,Wunderground v.1.15,2013-04-06 04:18:00,
2013-04-06 00:22:00,36.2,24.8,30.19,North,9,5.0,7.0,63,0.00,,,0.00,Wunderground v.1.15,2013-04-06 04:22:00,
2013-04-06 00:28:00,36.1,25.1,30.18,North,6,5.0,7.0,64,0.00,,,0.00,Wunderground v.1.15,2013-04-06 04:28:00,
2013-04-06 00:33:00,36.0,25.0,30.18,NNE,25,4.0,9.0,64,0.00,,,0.00,Wunderground v.1.15,2013-04-06 04:33:00,
2013-04-06 00:39:00,35.9,24.9,30.18,NNE,19,3.0,9.0,64,0.00,,,0.00,Wunderground v.1.15,2013-04-06 04:39:00,
2013-04-06 00:44:00,35.8,24.8,30.18,NNE,12,3.0,9.0,64,0.00,,,0.00,Wunderground v.1.15,2013-04-06 04:44:00,
2013-04-06 00:50:00,35.6,25.0,30.18,NNE,26,3.0,9.0,65,0.00,,,0.00,Wunderground v.1.15,2013-04-06 04:50:00,
2013-04-06 00:55:00,35.7,25.1,30.18,NNE,30,3.0,9.0,65,0.00,,,0.00,Wunderground v.1.15,2013-04-06 04:55:00,
2013-04-06 01:00:00,35.7,25.1,30.18,NNE,20,3.0,4.0,65,0.00,,,0.00,Wunderground v.1.15,2013-04-06 05:00:00,
2013-04-06 01:05:00,35.6,25.0,30.18,NNE,32,4.0,5.0,65,0.00,,,0.00,Wunderground v.1.15,2013-04-06 05:05:00,
2013-04-06 01:12:00,35.6,25.0,30.18,NNE,23,4.0,5.0,65,0.00,,,0.00,Wunderground v.1.15,2013-04-06 05:12:00,
2013-04-06 01:18:00,35.6,25.0,30.18,NNE,16,4.0,5.0,65,0.00,,,0.00,Wunderground v.1.15,2013-04-06 05:18:00,
2013-04-06 01:24:00,35.4,25.2,30.18,North,9,3.0,4.0,66,0.00,,,0.00,Wunderground v.1.15,2013-04-06 05:24:00,
2013-04-06 01:29:00,35.4,25.2,30.19,NNE,19,3.0,4.0,66,0.00,,,0.00,Wunderground v.1.15,2013-04-06 05:29:00,
2013-04-06 01:34:00,35.5,25.3,30.18,North,357,3.0,8.0,66,0.00,,,0.00,Wunderground v.1.15,2013-04-06 05:34:00,
2013-04-06 01:39:00,35.5,25.3,30.19,NNE,18,3.0,8.0,66,0.00,,,0.00,Wunderground v.1.15,2013-04-06 05:39:00,
2013-04-06 01:44:00,35.5,25.3,30.18,NE,49,3.0,8.0,66,0.00,,,0.00,Wunderground v.1.15,2013-04-06 05:44:00,
2013-04-06 01:50:00,35.3,25.4,30.18,NE,42,3.0,8.0,67,0.00,,,0.00,Wunderground v.1.15,2013-04-06 05:50:00,
2013-04-06 01:56:00,35.3,25.4,30.18,NE,45,3.0,8.0,67,0.00,,,0.00,Wunderground v.1.15,2013-04-06 05:56:00,
2013-04-06 02:02:00,35.2,25.7,30.18,NE,46,4.0,4.0,68,0.00,,,0.00,Wunderground v.1.15,2013-04-06 06:02:00,
2013-04-06 02:07:00,35.2,25.7,30.18,NE,52,3.0,4.0,68,0.00,,,0.00,Wunderground v.1.15,2013-04-06 06:07:00,
2013-04-06 02:13:00,35.0,25.9,30.17,NE,53,3.0,3.0,69,0.00,,,0.00,Wunderground v.1.15,2013-04-06 06:13:00,
2013-04-06 02:19:00,35.1,25.9,30.17,NE,56,3.0,4.0,69,0.00,,,0.00,Wunderground v.1.15,2013-04-06 06:19:00,
2013-04-06 02:25:00,35.4,26.2,30.17,NE,56,4.0,4.0,69,0.00,,,0.00,Wunderground v.1.15,2013-04-06 06:25:00,
2013-04-06 02:32:00,35.5,26.3,30.17,NE,56,4.0,6.0,69,0.00,,,0.00,Wunderground v.1.15,2013-04-06 06:32:00,
2013-04-06 02:37:00,35.6,26.4,30.16,East,97,3.0,6.0,69,0.00,,,0.00,Wunderground v.1.15,2013-04-06 06:37:00,
2013-04-06 02:43:00,35.7,26.5,30.15,ESE,107,3.0,6.0,69,0.00,,,0.00,Wunderground v.1.15,2013-04-06 06:43:00,
2013-04-06 02:49:00,35.8,26.3,30.15,East,82,3.0,6.0,68,0.00,,,0.00,Wunderground v.1.15,2013-04-06 06:49:00,
2013-04-06 02:55:00,36.0,26.5,30.15,ESE,115,4.0,7.0,68,0.00,,,0.00,Wunderground v.1.15,2013-04-06 06:55:00,
2013-04-06 03:00:00,36.1,26.2,30.16,NNE,13,4.0,4.0,67,0.00,,,0.00,Wunderground v.1.15,2013-04-06 07:00:00,
2013-04-06 03:06:00,36.1,26.6,30.16,North,11,3.0,4.0,68,0.00,,,0.00,Wunderground v.1.15,2013-04-06 07:06:00,
2013-04-06 03:12:00,36.0,26.1,30.16,ENE,78,2.0,3.0,67,0.00,,,0.00,Wunderground v.1.15,2013-04-06 07:12:00,
2013-04-06 03:17:00,36.0,26.1,30.16,ENE,64,2.0,3.0,67,0.00,,,0.00,Wunderground v.1.15,2013-04-06 07:17:00,
2013-04-06 03:23:00,36.3,26.0,30.17,NE,54,2.0,2.0,66,0.00,,,0.00,Wunderground v.1.15,2013-04-06 07:23:00,
2013-04-06 03:28:00,36.3,26.0,30.17,NE,51,1.0,2.0,66,0.00,,,0.00,Wunderground v.1.15,2013-04-06 07:28:00,
2013-04-06 03:34:00,36.5,25.8,30.16,East,82,1.0,7.0,65,0.00,,,0.00,Wunderground v.1.15,2013-04-06 07:34:00,
2013-04-06 03:40:00,36.7,25.7,30.17,NE,44,2.0,2.0,64,0.00,,,0.00,Wunderground v.1.15,2013-04-06 07:40:00,
2013-04-06 03:45:00,36.8,25.8,30.16,NE,46,2.0,7.0,64,0.00,,,0.00,Wunderground v.1.15,2013-04-06 07:45:00,
2013-04-06 03:51:00,37.0,25.9,30.17,NE,53,2.0,7.0,64,0.00,,,0.00,Wunderground v.1.15,2013-04-06 07:51:00,
2013-04-06 03:57:00,37.3,25.8,30.17,NE,51,2.0,7.0,63,0.00,,,0.00,Wunderground v.1.15,2013-04-06 07:57:00,
2013-04-06 04:02:00,37.5,25.7,30.17,ENE,60,3.0,3.0,62,0.00,,,0.00,Wunderground v.1.15,2013-04-06 08:02:00,
2013-04-06 04:08:00,37.6,25.7,30.17,NE,46,3.0,4.0,62,0.00,,,0.00,Wunderground v.1.15,2013-04-06 08:08:00,
2013-04-06 04:14:00,37.8,25.9,30.17,NE,51,3.0,5.0,62,0.00,,,0.00,Wunderground v.1.15,2013-04-06 08:14:00,
2013-04-06 04:19:00,37.9,25.6,30.17,NE,50,3.0,5.0,61,0.00,,,0.00,Wunderground v.1.15,2013-04-06 08:19:00,
2013-04-06 04:24:00,37.9,25.6,30.16,East,94,3.0,6.0,61,0.00,,,0.00,Wunderground v.1.15,2013-04-06 08:24:00,
2013-04-06 04:30:00,37.9,25.6,30.17,ENE,72,3.0,3.0,61,0.00,,,0.00,Wunderground v.1.15,2013-04-06 08:30:00,
2013-04-06 04:37:00,38.1,25.4,30.17,East,96,3.0,5.0,60,0.00,,,0.00,Wunderground v.1.15,2013-04-06 08:37:00,
2013-04-06 04:42:00,38.2,25.9,30.18,East,94,3.0,4.0,61,0.00,,,0.00,Wunderground v.1.15,2013-04-06 08:42:00,
2013-04-06 04:47:00,38.1,25.8,30.18,SE,139,3.0,4.0,61,0.00,,,0.00,Wunderground v.1.15,2013-04-06 08:47:00,
2013-04-06 04:53:00,38.1,25.8,30.18,ESE,110,3.0,6.0,61,0.00,,,0.00,Wunderground v.1.15,2013-04-06 08:53:00,
2013-04-06 04:59:00,38.3,26.4,30.18,ENE,64,3.0,6.0,62,0.00,,,0.00,Wunderground v.1.15,2013-04-06 08:59:00,
2013-04-06 05:04:00,38.3,26.4,30.18,ESE,120,3.0,3.0,62,0.00,,,0.00,Wunderground v.1.15,2013-04-06 09:04:00,
2013-04-06 05:10:00,38.4,26.1,30.17,SSE,148,4.0,4.0,61,0.00,,,0.00,Wunderground v.1.15,2013-04-06 09:10:00,
2013-04-06 05:15:00,38.5,26.6,30.17,East,82,4.0,7.0,62,0.00,,,0.00,Wunderground v.1.15,2013-04-06 09:15:00,
2013-04-06 05:22:00,38.5,26.6,30.17,NW,307,4.0,8.0,62,0.00,,,0.00,Wunderground v.1.15,2013-04-06 09:22:00,
2013-04-06 05:27:00,38.5,27.0,30.17,East,98,4.0,8.0,63,0.00,,,0.00,Wunderground v.1.15,2013-04-06 09:27:00,
2013-04-06 05:32:00,38.5,27.0,30.17,East,89,4.0,7.0,63,0.00,,,0.00,Wunderground v.1.15,2013-04-06 09:32:00,
2013-04-06 05:37:00,38.5,27.0,30.17,South,169,4.0,9.0,63,0.00,,,0.00,Wunderground v.1.15,2013-04-06 09:37:00,
2013-04-06 05:42:00,38.5,27.0,30.18,SE,133,5.0,7.0,63,0.00,,,0.00,Wunderground v.1.15,2013-04-06 09:42:00,
2013-04-06 05:47:00,38.6,27.1,30.18,East,90,5.0,8.0,63,0.00,,,0.00,Wunderground v.1.15,2013-04-06 09:47:00,
2013-04-06 05:53:00,38.6,26.7,30.17,NE,36,5.0,9.0,62,0.00,,,0.00,Wunderground v.1.15,2013-04-06 09:53:00,
2013-04-06 06:00:00,38.8,27.3,30.17,SE,135,5.0,8.0,63,0.00,,,0.00,Wunderground v.1.15,2013-04-06 10:00:00,
2013-04-06 06:08:00,38.9,27.0,30.18,SE,142,5.0,8.0,62,0.00,,,0.00,Wunderground v.1.15,2013-04-06 10:08:00,
2013-04-06 06:14:00,39.0,27.1,30.18,ESE,120,5.0,7.0,62,0.00,,,0.00,Wunderground v.1.15,2013-04-06 10:14:00,
2013-04-06 06:20:00,39.1,26.8,30.18,ESE,117,5.0,7.0,61,0.00,,,0.00,Wunderground v.1.15,2013-04-06 10:20:00,
2013-04-06 06:26:00,39.1,26.8,30.18,ESE,113,6.0,8.0,61,0.00,,,0.00,Wunderground v.1.15,2013-04-06 10:26:00,
2013-04-06 06:31:00,39.3,26.6,30.18,SE,139,6.0,10.0,60,0.00,,,0.00,Wunderground v.1.15,2013-04-06 10:31:00,
2013-04-06 06:37:00,39.3,26.6,30.18,SE,129,6.0,10.0,60,0.00,,,0.00,Wunderground v.1.15,2013-04-06 10:37:00,
2013-04-06 06:43:00,39.4,26.7,30.18,ESE,115,6.0,10.0,60,0.00,,,0.00,Wunderground v.1.15,2013-04-06 10:43:00,
2013-04-06 06:49:00,39.4,26.7,30.18,SE,142,7.0,10.0,60,0.00,,,0.00,Wunderground v.1.15,2013-04-06 10:49:00,
2013-04-06 06:54:00,39.4,26.7,30.17,SE,132,7.0,10.0,60,0.00,,,0.00,Wunderground v.1.15,2013-04-06 10:54:00,
2013-04-06 06:59:00,39.4,26.7,30.17,SE,131,6.0,10.0,60,0.00,,,0.00,Wunderground v.1.15,2013-04-06 10:59:00,
2013-04-06 07:05:00,39.5,26.8,30.17,SE,137,6.0,10.0,60,0.00,,,0.00,Wunderground v.1.15,2013-04-06 11:05:00,
2013-04-06 07:10:00,39.5,26.3,30.18,ESE,120,6.0,6.0,59,0.00,,,0.00,Wunderground v.1.15,2013-04-06 11:10:00,
2013-04-06 07:16:00,39.6,26.4,30.18,SE,130,5.0,6.0,59,0.00,,,0.00,Wunderground v.1.15,2013-04-06 11:16:00,
2013-04-06 07:22:00,39.6,26.4,30.18,SSE,149,5.0,8.0,59,0.00,,,0.00,Wunderground v.1.15,2013-04-06 11:22:00,
2013-04-06 07:27:00,39.7,26.5,30.18,SE,131,6.0,8.0,59,0.00,,,0.00,Wunderground v.1.15,2013-04-06 11:27:00,
2013-04-06 07:33:00,39.7,26.5,30.17,ESE,117,7.0,12.0,59,0.00,,,0.00,Wunderground v.1.15,2013-04-06 11:33:00,
2013-04-06 07:38:00,39.8,26.6,30.17,SE,131,8.0,13.0,59,0.00,,,0.00,Wunderground v.1.15,2013-04-06 11:38:00,
2013-04-06 07:44:00,39.9,26.7,30.17,ESE,121,8.0,12.0,59,0.00,,,0.00,Wunderground v.1.15,2013-04-06 11:44:00,
2013-04-06 07:50:00,40.1,26.5,30.17,SSW,205,8.0,8.0,58,0.00,,,0.00,Wunderground v.1.15,2013-04-06 11:50:00,
2013-04-06 07:55:00,40.1,26.5,30.17,SE,124,8.0,12.0,58,0.00,,,0.00,Wunderground v.1.15,2013-04-06 11:55:00,
2013-04-06 08:00:00,40.3,26.3,30.16,ESE,114,9.0,12.0,57,0.00,,,0.00,Wunderground v.1.15,2013-04-06 12:00:00,
2013-04-06 08:06:00,40.4,26.8,30.17,SSE,148,11.0,18.0,58,0.00,,,0.00,Wunderground v.1.15,2013-04-06 12:06:00,
2013-04-06 08:12:00,40.6,26.5,30.18,SE,132,9.0,10.0,57,0.00,,,0.00,Wunderground v.1.15,2013-04-06 12:12:00,
2013-04-06 08:18:00,40.7,26.2,30.18,SSE,163,8.0,14.0,56,0.00,,,0.00,Wunderground v.1.15,2013-04-06 12:18:00,
2013-04-06 08:23:00,40.9,26.4,30.19,ESE,117,8.0,8.0,56,0.00,,,0.00,Wunderground v.1.15,2013-04-06 12:23:00,
2013-04-06 08:28:00,41.0,26.9,30.19,ESE,120,7.0,11.0,57,0.00,,,0.00,Wunderground v.1.15,2013-04-06 12:28:00,
2013-04-06 08:33:00,41.2,26.7,30.19,SSE,152,6.0,12.0,56,0.00,,,0.00,Wunderground v.1.15,2013-04-06 12:33:00,
2013-04-06 08:38:00,41.3,26.8,30.19,SE,141,7.0,13.0,56,0.00,,,0.00,Wunderground v.1.15,2013-04-06 12:38:00,
2013-04-06 08:44:00,41.4,26.4,30.18,SE,131,9.0,12.0,55,0.00,,,0.00,Wunderground v.1.15,2013-04-06 12:44:00,
2013-04-06 08:49:00,41.5,26.5,30.17,SE,145,9.0,15.0,55,0.00,,,0.00,Wunderground v.1.15,2013-04-06 12:49:00,
2013-04-06 08:55:00,41.5,26.1,30.17,ESE,117,11.0,16.0,54,0.00,,,0.00,Wunderground v.1.15,2013-04-06 12:55:00,
2013-04-06 09:00:00,41.5,26.1,30.17,SE,139,12.0,15.0,54,0.00,,,0.00,Wunderground v.1.15,2013-04-06 13:00:00,
2013-04-06 09:06:00,41.5,26.1,30.17,East,95,13.0,18.0,54,0.00,,,0.00,Wunderground v.1.15,2013-04-06 13:06:00,
2013-04-06 09:12:00,41.5,26.5,30.16,SE,146,12.0,16.0,55,0.00,,,0.00,Wunderground v.1.15,2013-04-06 13:12:00,
2013-04-06 09:17:00,41.7,26.3,30.16,SE,132,12.0,16.0,54,0.00,,,0.00,Wunderground v.1.15,2013-04-06 13:17:00,
2013-04-06 09:22:00,42.2,27.2,30.16,ESE,121,11.0,11.0,55,0.00,,,0.00,Wunderground v.1.15,2013-04-06 13:22:00,
2013-04-06 09:28:00,42.6,26.6,30.17,East,97,9.0,13.0,53,0.00,,,0.00,Wunderground v.1.15,2013-04-06 13:28:00,
2013-04-06 09:33:00,42.9,26.9,30.18,ESE,107,10.0,19.0,53,0.00,,,0.00,Wunderground v.1.15,2013-04-06 13:33:00,
2013-04-06 09:38:00,43.5,27.0,30.19,SE,137,6.0,19.0,52,0.00,,,0.00,Wunderground v.1.15,2013-04-06 13:38:00,
2013-04-06 09:44:00,43.3,26.4,30.19,ESE,120,7.0,19.0,51,0.00,,,0.00,Wunderground v.1.15,2013-04-06 13:44:00,
2013-04-06 09:50:00,43.6,26.6,30.19,SE,138,8.0,8.0,51,0.00,,,0.00,Wunderground v.1.15,2013-04-06 13:50:00,
2013-04-06 09:55:00,44.1,26.6,30.19,SSE,155,7.0,19.0,50,0.00,,,0.00,Wunderground v.1.15,2013-04-06 13:55:00,
2013-04-06 10:00:00,44.5,27.0,30.19,ESE,122,7.0,7.0,50,0.00,,,0.00,Wunderground v.1.15,2013-04-06 14:00:00,
2013-04-06 10:07:00,45.1,27.1,30.19,ESE,110,9.0,10.0,49,0.00,,,0.00,Wunderground v.1.15,2013-04-06 14:07:00,
2013-04-06 10:13:00,45.5,25.9,30.19,SSE,159,9.0,13.0,46,0.00,,,0.00,Wunderground v.1.15,2013-04-06 14:13:00,
2013-04-06 10:20:00,46.1,26.4,30.18,SE,132,8.0,10.0,46,0.00,,,0.00,Wunderground v.1.15,2013-04-06 14:20:00,
2013-04-06 10:25:00,46.1,26.4,30.18,ESE,122,8.0,14.0,46,0.00,,,0.00,Wunderground v.1.15,2013-04-06 14:25:00,
2013-04-06 10:31:00,46.1,26.4,30.18,SE,141,9.0,24.0,46,0.00,,,0.00,Wunderground v.1.15,2013-04-06 14:31:00,
2013-04-06 10:37:00,46.2,26.5,30.18,SSE,158,10.0,24.0,46,0.00,,,0.00,Wunderground v.1.15,2013-04-06 14:37:00,
2013-04-06 10:42:00,46.5,26.8,30.18,SE,131,10.0,24.0,46,0.00,,,0.00,Wunderground v.1.15,2013-04-06 14:42:00,
2013-04-06 10:47:00,46.6,26.4,30.17,SE,145,11.0,24.0,45,0.00,,,0.00,Wunderground v.1.15,2013-04-06 14:47:00,
2013-04-06 10:53:00,46.6,26.4,30.17,SE,135,11.0,24.0,45,0.00,,,0.00,Wunderground v.1.15,2013-04-06 14:53:00,
2013-04-06 10:58:00,46.9,26.6,30.17,SE,129,11.0,24.0,45,0.00,,,0.00,Wunderground v.1.15,2013-04-06 14:58:00,
2013-04-06 11:05:00,47.1,26.8,30.17,SE,131,11.0,17.0,45,0.00,,,0.00,Wunderground v.1.15,2013-04-06 15:05:00,
2013-04-06 11:12:00,47.3,27.5,30.16,SE,138,11.0,12.0,46,0.00,,,0.00,Wunderground v.1.15,2013-04-06 15:12:00,
2013-04-06 11:17:00,47.8,26.9,30.16,SSE,150,11.0,17.0,44,0.00,,,0.00,Wunderground v.1.15,2013-04-06 15:17:00,
2013-04-06 11:23:00,48.1,27.2,30.16,SSE,155,12.0,12.0,44,0.00,,,0.00,Wunderground v.1.15,2013-04-06 15:23:00,
2013-04-06 11:28:00,48.3,27.4,30.15,SE,132,12.0,20.0,44,0.00,,,0.00,Wunderground v.1.15,2013-04-06 15:28:00,
2013-04-06 11:34:00,48.7,27.7,30.15,SE,141,12.0,20.0,44,0.00,,,0.00,Wunderground v.1.15,2013-04-06 15:34:00,
2013-04-06 11:40:00,49.0,28.0,30.15,SE,131,12.0,20.0,44,0.00,,,0.00,Wunderground v.1.15,2013-04-06 15:40:00,
2013-04-06 11:46:00,49.1,27.5,30.14,SE,129,13.0,20.0,43,0.00,,,0.00,Wunderground v.1.15,2013-04-06 15:46:00,
2013-04-06 11:52:00,49.6,28.6,30.14,SSE,162,11.0,20.0,44,0.00,,,0.00,Wunderground v.1.15,2013-04-06 15:52:00,
2013-04-06 11:57:00,49.7,28.1,30.14,SE,139,11.0,20.0,43,0.00,,,0.00,Wunderground v.1.15,2013-04-06 15:57:00,
2013-04-06 12:03:00,49.7,28.1,30.13,ESE,120,13.0,16.0,43,0.00,,,0.00,Wunderground v.1.15,2013-04-06 16:03:00,
2013-04-06 12:08:00,50.1,28.4,30.13,ESE,122,13.0,16.0,43,0.00,,,0.00,Wunderground v.1.15,2013-04-06 16:08:00,
2013-04-06 12:13:00,50.2,28.0,30.12,SE,136,13.0,17.0,42,0.00,,,0.00,Wunderground v.1.15,2013-04-06 16:13:00,
2013-04-06 12:19:00,50.8,28.5,30.12,SE,134,12.0,17.0,42,0.00,,,0.00,Wunderground v.1.15,2013-04-06 16:19:00,
2013-04-06 12:25:00,51.2,30.0,30.12,SSE,167,11.0,14.0,44,0.00,,,0.00,Wunderground v.1.15,2013-04-06 16:25:00,
2013-04-06 12:32:00,51.3,28.4,30.12,SSE,149,12.0,21.0,41,0.00,,,0.00,Wunderground v.1.15,2013-04-06 16:32:00,
2013-04-06 12:38:00,51.5,29.1,30.11,SE,136,13.0,21.0,42,0.00,,,0.00,Wunderground v.1.15,2013-04-06 16:38:00,
2013-04-06 12:44:00,52.0,29.6,30.11,SE,139,13.0,21.0,42,0.00,,,0.00,Wunderground v.1.15,2013-04-06 16:44:00,
2013-04-06 12:50:00,52.3,29.9,30.11,SSE,165,13.0,13.0,42,0.00,,,0.00,Wunderground v.1.15,2013-04-06 16:50:00,
2013-04-06 12:56:00,52.7,30.2,30.10,SE,130,13.0,21.0,42,0.00,,,0.00,Wunderground v.1.15,2013-04-06 16:56:00,
2013-04-06 13:01:00,52.7,29.6,30.10,SSE,153,14.0,14.0,41,0.00,,,0.00,Wunderground v.1.15,2013-04-06 17:01:00,
2013-04-06 13:07:00,53.1,30.6,30.10,SE,131,14.0,15.0,42,0.00,,,0.00,Wunderground v.1.15,2013-04-06 17:07:00,
2013-04-06 13:13:00,54.0,30.8,30.09,SE,134,13.0,19.0,41,0.00,,,0.00,Wunderground v.1.15,2013-04-06 17:13:00,
2013-04-06 13:19:00,54.1,30.3,30.09,SE,137,13.0,19.0,40,0.00,,,0.00,Wunderground v.1.15,2013-04-06 17:19:00,
2013-04-06 13:24:00,54.4,30.6,30.09,ESE,111,13.0,16.0,40,0.00,,,0.00,Wunderground v.1.15,2013-04-06 17:24:00,
2013-04-06 13:30:00,54.6,30.7,30.08,SE,145,14.0,14.0,40,0.00,,,0.00,Wunderground v.1.15,2013-04-06 17:30:00,
2013-04-06 13:36:00,55.0,31.1,30.08,SSW,195,14.0,23.0,40,0.00,,,0.00,Wunderground v.1.15,2013-04-06 17:36:00,
2013-04-06 13:42:00,55.5,31.5,30.07,SE,131,14.0,23.0,40,0.00,,,0.00,Wunderground v.1.15,2013-04-06 17:42:00,
2013-04-06 13:48:00,55.9,31.3,30.07,SE,129,14.0,23.0,39,0.00,,,0.00,Wunderground v.1.15,2013-04-06 17:48:00,
2013-04-06 13:54:00,55.9,31.9,30.06,SE,143,14.0,23.0,40,0.00,,,0.00,Wunderground v.1.15,2013-04-06 17:54:00,
2013-04-06 13:59:00,56.4,31.7,30.06,SSE,160,13.0,23.0,39,0.00,,,0.00,Wunderground v.1.15,2013-04-06 17:59:00,
2013-04-06 14:04:00,56.8,32.1,30.05,SE,131,13.0,21.0,39,0.00,,,0.00,Wunderground v.1.15,2013-04-06 18:04:00,
2013-04-06 14:09:00,57.1,31.7,30.05,SE,139,14.0,25.0,38,0.00,,,0.00,Wunderground v.1.15,2013-04-06 18:09:00,
2013-04-06 14:15:00,57.3,31.9,30.04,SE,139,14.0,15.0,38,0.00,,,0.00,Wunderground v.1.15,2013-04-06 18:15:00,
2013-04-06 14:20:00,57.6,32.8,30.04,SE,125,14.0,16.0,39,0.00,,,0.00,Wunderground v.1.15,2013-04-06 18:20:00,
2013-04-06 14:26:00,57.8,33.0,30.03,SE,145,14.0,20.0,39,0.00,,,0.00,Wunderground v.1.15,2013-04-06 18:26:00,
2013-04-06 14:31:00,58.1,32.6,30.03,SE,131,14.0,19.0,38,0.00,,,0.00,Wunderground v.1.15,2013-04-06 18:31:00,
2013-04-06 14:36:00,58.6,33.0,30.03,South,170,13.0,26.0,38,0.00,,,0.00,Wunderground v.1.15,2013-04-06 18:36:00,
2013-04-06 14:42:00,59.7,34.0,30.02,SE,139,14.0,26.0,38,0.00,,,0.00,Wunderground v.1.15,2013-04-06 18:42:00,
2013-04-06 14:48:00,60.1,33.7,30.01,SE,139,14.0,26.0,37,0.00,,,0.00,Wunderground v.1.15,2013-04-06 18:48:00,
2013-04-06 14:54:00,60.7,34.3,30.00,SSE,149,14.0,26.0,37,0.00,,,0.00,Wunderground v.1.15,2013-04-06 18:54:00,
2013-04-06 14:59:00,61.1,34.6,30.00,South,187,15.0,26.0,37,0.00,,,0.00,Wunderground v.1.15,2013-04-06 18:59:00,
2013-04-06 15:05:00,61.4,34.9,29.99,SE,137,16.0,20.0,37,0.00,,,0.00,Wunderground v.1.15,2013-04-06 19:05:00,
2013-04-06 15:11:00,61.6,34.4,29.99,SE,134,15.0,17.0,36,0.00,,,0.00,Wunderground v.1.15,2013-04-06 19:11:00,
2013-04-06 15:17:00,61.3,34.8,29.98,SSE,148,16.0,24.0,37,0.00,,,0.00,Wunderground v.1.15,2013-04-06 19:17:00,
2013-04-06 15:22:00,61.1,34.6,29.98,SSE,152,15.0,19.0,37,0.00,,,0.00,Wunderground v.1.15,2013-04-06 19:22:00,
2013-04-06 15:27:00,61.2,35.4,29.97,SSW,212,15.0,23.0,38,0.00,,,0.00,Wunderground v.1.15,2013-04-06 19:27:00,
2013-04-06 15:33:00,61.6,34.4,29.96,ESE,117,15.0,29.0,36,0.00,,,0.00,Wunderground v.1.15,2013-04-06 19:33:00,
2013-04-06 15:39:00,62.1,35.5,29.96,SE,132,14.0,29.0,37,0.00,,,0.00,Wunderground v.1.15,2013-04-06 19:39:00,
2013-04-06 15:45:00,62.5,35.9,29.96,SE,131,12.0,29.0,37,0.00,,,0.00,Wunderground v.1.15,2013-04-06 19:45:00,
2013-04-06 15:51:00,63.0,35.6,29.95,South,188,13.0,17.0,36,0.00,,,0.00,Wunderground v.1.15,2013-04-06 19:51:00,
2013-04-06 15:56:00,63.1,36.4,29.95,SE,145,13.0,29.0,37,0.00,,,0.00,Wunderground v.1.15,2013-04-06 19:56:00,
2013-04-06 16:02:00,63.4,36.7,29.94,SE,132,12.0,19.0,37,0.00,,,0.00,Wunderground v.1.15,2013-04-06 20:02:00,
2013-04-06 16:08:00,64.0,36.5,29.93,SE,141,11.0,19.0,36,0.00,,,0.00,Wunderground v.1.15,2013-04-06 20:08:00,
2013-04-06 16:14:00,64.2,36.0,29.93,SSE,167,14.0,18.0,35,0.00,,,0.00,Wunderground v.1.15,2013-04-06 20:14:00,
2013-04-06 16:20:00,64.7,36.4,29.92,SSE,163,15.0,16.0,35,0.00,,,0.00,Wunderground v.1.15,2013-04-06 20:20:00,
2013-04-06 16:25:00,65.2,36.8,29.92,SSE,148,15.0,16.0,35,0.00,,,0.00,Wunderground v.1.15,2013-04-06 20:25:00,
2013-04-06 16:31:00,65.5,37.1,29.91,SSE,163,14.0,28.0,35,0.00,,,0.00,Wunderground v.1.15,2013-04-06 20:31:00,
2013-04-06 16:37:00,65.8,36.6,29.91,South,172,13.0,28.0,34,0.00,,,0.00,Wunderground v.1.15,2013-04-06 20:37:00,
2013-04-06 16:43:00,65.9,37.5,29.91,SSE,166,15.0,28.0,35,0.00,,,0.00,Wunderground v.1.15,2013-04-06 20:43:00,
2013-04-06 16:48:00,65.9,37.5,29.90,SSE,150,16.0,28.0,35,0.00,,,0.00,Wunderground v.1.15,2013-04-06 20:48:00,
2013-04-06 16:54:00,66.1,37.6,29.90,SE,127,15.0,28.0,35,0.00,,,0.00,Wunderground v.1.15,2013-04-06 20:54:00,
2013-04-06 16:59:00,66.2,37.7,29.90,SE,139,15.0,28.0,35,0.00,,,0.00,Wunderground v.1.15,2013-04-06 20:59:00,
2013-04-06 17:05:00,65.5,37.1,29.89,SSW,203,14.0,15.0,35,0.00,,,0.00,Wunderground v.1.15,2013-04-06 21:05:00,
2013-04-06 17:10:00,64.8,37.2,29.89,SE,131,14.0,14.0,36,0.00,,,0.00,Wunderground v.1.15,2013-04-06 21:10:00,
2013-04-06 17:17:00,64.3,36.8,29.89,SE,129,14.0,19.0,36,0.00,,,0.00,Wunderground v.1.15,2013-04-06 21:17:00,
2013-04-06 17:23:00,64.1,37.3,29.88,SSE,161,14.0,19.0,37,0.00,,,0.00,Wunderground v.1.15,2013-04-06 21:23:00,
2013-04-06 17:28:00,63.9,37.1,29.88,SE,131,15.0,19.0,37,0.00,,,0.00,Wunderground v.1.15,2013-04-06 21:28:00,
2013-04-06 17:35:00,63.9,37.8,29.88,South,172,14.0,27.0,38,0.00,,,0.00,Wunderground v.1.15,2013-04-06 21:35:00,
2013-04-06 17:41:00,63.8,37.0,29.88,South,170,12.0,27.0,37,0.00,,,0.00,Wunderground v.1.15,2013-04-06 21:41:00,
2013-04-06 17:47:00,63.6,37.5,29.88,SSE,158,12.0,27.0,38,0.00,,,0.00,Wunderground v.1.15,2013-04-06 21:47:00,
2013-04-06 17:53:00,63.6,37.5,29.88,SE,138,11.0,27.0,38,0.00,,,0.00,Wunderground v.1.15,2013-04-06 21:53:00,
2013-04-06 17:58:00,63.5,38.1,29.88,SSE,153,11.0,27.0,39,0.00,,,0.00,Wunderground v.1.15,2013-04-06 21:58:00,
2013-04-06 18:03:00,63.4,38.0,29.87,SE,132,11.0,14.0,39,0.00,,,0.00,Wunderground v.1.15,2013-04-06 22:03:00,
2013-04-06 18:09:00,63.3,37.9,29.87,SSE,165,12.0,19.0,39,0.00,,,0.00,Wunderground v.1.15,2013-04-06 22:09:00,
2013-04-06 18:14:00,63.4,38.0,29.87,SSE,167,13.0,20.0,39,0.00,,,0.00,Wunderground v.1.15,2013-04-06 22:14:00,
2013-04-06 18:20:00,63.3,37.9,29.87,SSE,152,13.0,13.0,39,0.00,,,0.00,Wunderground v.1.15,2013-04-06 22:20:00,
2013-04-06 18:27:00,63.1,38.4,29.87,SSE,150,9.0,13.0,40,0.00,,,0.00,Wunderground v.1.15,2013-04-06 22:27:00,
2013-04-06 18:33:00,63.0,38.3,29.86,SE,131,10.0,26.0,40,0.00,,,0.00,Wunderground v.1.15,2013-04-06 22:33:00,
2013-04-06 18:38:00,62.9,38.2,29.86,South,184,11.0,26.0,40,0.00,,,0.00,Wunderground v.1.15,2013-04-06 22:38:00,
2013-04-06 18:43:00,62.8,38.7,29.86,SSW,197,10.0,26.0,41,0.00,,,0.00,Wunderground v.1.15,2013-04-06 22:43:00,
2013-04-06 18:48:00,62.8,38.7,29.86,SE,135,9.0,26.0,41,0.00,,,0.00,Wunderground v.1.15,2013-04-06 22:48:00,
2013-04-06 18:53:00,62.6,38.6,29.85,SE,138,9.0,26.0,41,0.00,,,0.00,Wunderground v.1.15,2013-04-06 22:53:00,
2013-04-06 18:59:00,62.5,38.5,29.85,SE,131,9.0,26.0,41,0.00,,,0.00,Wunderground v.1.15,2013-04-06 22:59:00,
2013-04-06 19:05:00,62.4,39.0,29.86,SSE,149,9.0,13.0,42,0.00,,,0.00,Wunderground v.1.15,2013-04-06 23:05:00,
2013-04-06 19:10:00,62.3,38.9,29.86,SE,124,9.0,9.0,42,0.00,,,0.00,Wunderground v.1.15,2013-04-06 23:10:00,
2013-04-06 19:16:00,62.2,38.8,29.86,South,187,8.0,12.0,42,0.00,,,0.00,Wunderground v.1.15,2013-04-06 23:16:00,
2013-04-06 19:22:00,62.0,39.2,29.86,SE,145,8.0,9.0,43,0.00,,,0.00,Wunderground v.1.15,2013-04-06 23:22:00,
2013-04-06 19:28:00,61.9,39.1,29.86,South,174,8.0,11.0,43,0.00,,,0.00,Wunderground v.1.15,2013-04-06 23:28:00,
2013-04-06 19:34:00,61.7,39.0,29.86,ESE,114,8.0,28.0,43,0.00,,,0.00,Wunderground v.1.15,2013-04-06 23:34:00,
2013-04-06 19:40:00,61.6,38.9,29.85,SE,141,7.0,7.0,43,0.00,,,0.00,Wunderground v.1.15,2013-04-06 23:40:00,
2013-04-06 19:46:00,61.4,39.3,29.85,SE,135,8.0,28.0,44,0.00,,,0.00,Wunderground v.1.15,2013-04-06 23:46:00,
2013-04-06 19:51:00,61.3,39.2,29.85,SSE,148,8.0,28.0,44,0.00,,,0.00,Wunderground v.1.15,2013-04-06 23:51:00,
2013-04-06 19:57:00,61.3,39.2,29.84,SSE,162,8.0,28.0,44,0.00,,,0.00,Wunderground v.1.15,2013-04-06 23:57:00,
2013-04-06 20:03:00,61.1,39.0,29.84,South,173,7.0,8.0,44,0.00,,,0.00,Wunderground v.1.15,2013-04-07 00:03:00,
2013-04-06 20:08:00,61.0,39.5,29.84,SE,143,7.0,8.0,45,0.00,,,0.00,Wunderground v.1.15,2013-04-07 00:08:00,
2013-04-06 20:14:00,60.9,39.4,29.84,SE,143,7.0,7.0,45,0.00,,,0.00,Wunderground v.1.15,2013-04-07 00:14:00,
2013-04-06 20:19:00,60.8,39.3,29.84,SSE,159,7.0,11.0,45,0.00,,,0.00,Wunderground v.1.15,2013-04-07 00:19:00,
2013-04-06 20:25:00,60.7,39.2,29.84,South,177,7.0,9.0,45,0.00,,,0.00,Wunderground v.1.15,2013-04-07 00:25:00,
2013-04-06 20:32:00,60.5,39.6,29.84,ESE,117,7.0,15.0,46,0.00,,,0.00,Wunderground v.1.15,2013-04-07 00:32:00,
2013-04-06 20:38:00,60.2,39.3,29.83,SSE,158,6.0,15.0,46,0.00,,,0.00,Wunderground v.1.15,2013-04-07 00:38:00,
2013-04-06 20:44:00,59.9,39.1,29.83,SSE,162,6.0,15.0,46,0.00,,,0.00,Wunderground v.1.15,2013-04-07 00:44:00,
2013-04-06 20:50:00,59.7,39.4,29.83,SE,130,7.0,15.0,47,0.00,,,0.00,Wunderground v.1.15,2013-04-07 00:50:00,
2013-04-06 20:57:00,59.5,39.2,29.82,SE,141,8.0,15.0,47,0.00,,,0.00,Wunderground v.1.15,2013-04-07 00:57:00,
2013-04-06 21:02:00,59.3,39.6,29.82,SSE,159,8.0,9.0,48,0.00,,,0.00,Wunderground v.1.15,2013-04-07 01:02:00,
2013-04-06 21:08:00,59.3,39.6,29.82,SE,128,8.0,13.0,48,0.00,,,0.00,Wunderground v.1.15,2013-04-07 01:08:00,
2013-04-06 21:13:00,59.2,39.5,29.82,SSE,153,8.0,9.0,48,0.00,,,0.00,Wunderground v.1.15,2013-04-07 01:13:00,
2013-04-06 21:20:00,59.1,39.4,29.82,SE,146,7.0,7.0,48,0.00,,,0.00,Wunderground v.1.15,2013-04-07 01:20:00,
2013-04-06 21:26:00,59.0,39.9,29.81,SE,145,6.0,9.0,49,0.00,,,0.00,Wunderground v.1.15,2013-04-07 01:26:00,
2013-04-06 21:32:00,58.9,39.8,29.81,SE,131,7.0,14.0,49,0.00,,,0.00,Wunderground v.1.15,2013-04-07 01:32:00,
2013-04-06 21:37:00,58.8,39.7,29.81,SSW,197,6.0,14.0,49,0.00,,,0.00,Wunderground v.1.15,2013-04-07 01:37:00,
2013-04-06 21:43:00,58.8,39.7,29.82,South,186,6.0,14.0,49,0.00,,,0.00,Wunderground v.1.15,2013-04-07 01:43:00,
2013-04-06 21:48:00,59.0,39.9,29.82,SSE,160,6.0,14.0,49,0.00,,,0.00,Wunderground v.1.15,2013-04-07 01:48:00,
2013-04-06 21:53:00,59.0,39.9,29.82,SSW,200,7.0,14.0,49,0.00,,,0.00,Wunderground v.1.15,2013-04-07 01:53:00,
2013-04-06 21:58:00,59.0,40.4,29.82,SE,131,7.0,14.0,50,0.00,,,0.00,Wunderground v.1.15,2013-04-07 01:58:00,
2013-04-06 22:05:00,58.9,40.3,29.81,SE,139,7.0,9.0,50,0.00,,,0.00,Wunderground v.1.15,2013-04-07 02:05:00,
2013-04-06 22:12:00,58.8,40.2,29.82,South,187,6.0,7.0,50,0.00,,,0.00,Wunderground v.1.15,2013-04-07 02:12:00,
2013-04-06 22:17:00,58.6,40.5,29.82,South,176,6.0,9.0,51,0.00,,,0.00,Wunderground v.1.15,2013-04-07 02:17:00,
2013-04-06 22:22:00,58.4,40.3,29.81,SE,125,7.0,7.0,51,0.00,,,0.00,Wunderground v.1.15,2013-04-07 02:22:00,
2013-04-06 22:28:00,58.5,40.4,29.82,SSE,163,6.0,12.0,51,0.00,,,0.00,Wunderground v.1.15,2013-04-07 02:28:00,
2013-04-06 22:33:00,58.7,40.6,29.81,SSE,150,7.0,15.0,51,0.00,,,0.00,Wunderground v.1.15,2013-04-07 02:33:00,
2013-04-06 22:38:00,58.8,40.7,29.81,South,169,7.0,15.0,51,0.00,,,0.00,Wunderground v.1.15,2013-04-07 02:38:00,
2013-04-06 22:44:00,58.9,40.8,29.81,SSW,193,7.0,15.0,51,0.00,,,0.00,Wunderground v.1.15,2013-04-07 02:44:00,
2013-04-06 22:50:00,59.2,41.1,29.80,SSE,150,9.0,9.0,51,0.00,,,0.00,Wunderground v.1.15,2013-04-07 02:50:00,
2013-04-06 22:56:00,59.7,41.0,29.80,SW,214,8.0,15.0,50,0.00,,,0.00,Wunderground v.1.15,2013-04-07 02:56:00,
2013-04-06 23:02:00,60.0,41.3,29.81,South,170,10.0,14.0,50,0.00,,,0.00,Wunderground v.1.15,2013-04-07 03:02:00,
2013-04-06 23:08:00,60.5,41.2,29.81,South,187,11.0,14.0,49,0.00,,,0.00,Wunderground v.1.15,2013-04-07 03:08:00,
2013-04-06 23:14:00,61.2,40.8,29.80,SSW,203,13.0,20.0,47,0.00,,,0.00,Wunderground v.1.15,2013-04-07 03:14:00,
2013-04-06 23:19:00,61.5,40.5,29.80,SE,141,14.0,22.0,46,0.00,,,0.00,Wunderground v.1.15,2013-04-07 03:19:00,
2013-04-06 23:24:00,61.7,40.7,29.80,SSW,197,14.0,15.0,46,0.00,,,0.00,Wunderground v.1.15,2013-04-07 03:24:00,
2013-04-06 23:30:00,61.7,40.7,29.79,South,183,13.0,13.0,46,0.00,,,0.00,Wunderground v.1.15,2013-04-07 03:30:00,
2013-04-06 23:36:00,61.6,41.2,29.79,SSW,205,11.0,14.0,47,0.00,,,0.00,Wunderground v.1.15,2013-04-07 03:36:00,
2013-04-06 23:42:00,61.5,41.1,29.80,SSE,154,12.0,16.0,47,0.00,,,0.00,Wunderground v.1.15,2013-04-07 03:42:00,
2013-04-06 23:47:00,61.5,40.5,29.80,South,187,13.0,16.0,46,0.00,,,0.00,Wunderground v.1.15,2013-04-07 03:47:00,
2013-04-06 23:52:00,61.5,40.5,29.80,South,174,13.0,16.0,46,0.00,,,0.00,Wunderground v.1.15,2013-04-07 03:52:00,
2013-04-06 23:57:00,61.5,40.5,29.79,South,190,14.0,18.0,46,0.00,,,0.00,Wunderground v.1.15,2013-04-07 03:57:00,